Fort Worth Alliance, TX

7:04 PM CDT on July 27, 2017 (GMT -0500)
Fort Worth Alliance

Weather History for KAFW - December, 2012

Change the Weather History Date:

Saturday, December 15, 2012

  Actual Average Record
Temperature  
Mean Temperature 60 °F -  
Max Temperature 71 °F 55 °F 79 °F (2010)
Min Temperature 48 °F 33 °F 21 °F (2004)
Degree Days  
Heating Degree Days 6    
Growing Degree Days 10 (Base 50)    
Moisture  
Dew Point 37 °F    
Average Humidity 47    
Maximum Humidity 72    
Minimum Humidity 20    
Precipitation  
Precipitation 0.00 in - - ()
Sea Level Pressure  
Sea Level Pressure 29.85 in    
Wind  
Wind Speed 6 mph (WSW)    
Max Wind Speed 14 mph    
Max Gust Speed 20 mph    
Visibility 10 miles    
Events      
Averages and records for this station are not official NWS values.
T = Trace of Precipitation, MM = Missing Value Source: NWS Daily Summary

Daily Weather History Graph

Daily Weather History Graph

Search for Another Location

Airport or City:

Trip Planner

Search our weather history database for the weather conditions in past years. The results will help you decide how hot, cold, wet, or windy it might be!

Date:

Astronomy

Dec. 15, 2012 Rise Set
Actual Time 7:25 AM CST 5:24 PM CST
Civil Twilight 6:57 AM CST 5:51 PM CST
Nautical Twilight 6:26 AM CST 6:22 PM CST
Astronomical Twilight 5:56 AM CST 6:52 PM CST
Moon 9:24 AM CST (12/15) 8:23 PM CST (12/15)
Length of Visible Light 10h 53m
Length of Day
9h 59m
Waxing Crescent, 8% of the Moon is Illuminated
Dec 15
Waxing Crescent
Dec 19
First Quarter
Dec 28
Full
Jan 4
Last Quarter
Jan 11
New

Hourly Weather History & Observations

Time (CST) Temp. Dew Point Humidity Pressure Visibility Wind Dir Wind Speed Gust Speed Precip Events Conditions
12:53 AM 57.9 °F 48.9 °F 72% 29.86 in 10.0 mi SW 6.9 mph - N/A   Overcast
1:53 AM 57.9 °F 46.9 °F 67% 29.85 in 10.0 mi SSW 4.6 mph - N/A   Mostly Cloudy
2:53 AM 57.0 °F 44.1 °F 62% 29.84 in 10.0 mi SW 9.2 mph - N/A   Partly Cloudy
3:53 AM 55.9 °F 42.1 °F 60% 29.85 in 10.0 mi SSW 8.1 mph - N/A   Mostly Cloudy
4:53 AM 54.0 °F 39.0 °F 57% 29.85 in 10.0 mi SW 6.9 mph - N/A   Clear
5:53 AM 50.0 °F 37.9 °F 63% 29.86 in 10.0 mi South 4.6 mph - N/A   Clear
6:53 AM 51.1 °F 37.0 °F 59% 29.87 in 10.0 mi Calm Calm - N/A   Clear
7:53 AM 48.0 °F 37.0 °F 66% 29.89 in 10.0 mi Calm Calm - N/A   Clear
8:53 AM 55.0 °F 37.0 °F 51% 29.90 in 10.0 mi Calm Calm - N/A   Clear
9:53 AM 62.1 °F 33.1 °F 34% 29.90 in 10.0 mi West 11.5 mph 18.4 mph N/A   Clear
10:53 AM 64.0 °F 30.9 °F 29% 29.90 in 10.0 mi West 12.7 mph - N/A   Clear
11:53 AM 66.9 °F 30.9 °F 26% 29.88 in 10.0 mi West 12.7 mph - N/A   Clear
12:53 PM 69.1 °F 30.9 °F 24% 29.84 in 10.0 mi West 9.2 mph 18.4 mph N/A   Clear
1:53 PM 71.1 °F 28.0 °F 20% 29.81 in 10.0 mi WSW 13.8 mph 19.6 mph N/A   Clear
2:53 PM 71.1 °F 28.9 °F 21% 29.80 in 10.0 mi WSW 12.7 mph - N/A   Clear
3:53 PM 69.1 °F 30.9 °F 24% 29.81 in 10.0 mi WSW 8.1 mph - N/A   Clear
4:53 PM 64.9 °F 34.0 °F 32% 29.81 in 10.0 mi Calm Calm - N/A   Clear
5:53 PM 57.9 °F 37.0 °F 46% 29.83 in 10.0 mi SW 3.5 mph - N/A   Clear
6:53 PM 57.9 °F 36.0 °F 44% 29.83 in 10.0 mi West 3.5 mph - N/A   Clear
7:53 PM 53.1 °F 37.9 °F 57% 29.84 in 10.0 mi Calm Calm - N/A   Clear
8:53 PM 55.9 °F 39.0 °F 53% 29.83 in 10.0 mi SW 3.5 mph - N/A   Clear
9:53 PM 54.0 °F 36.0 °F 51% 29.83 in 10.0 mi SW 5.8 mph - N/A   Clear
10:53 PM 50.0 °F 37.9 °F 63% 29.83 in 10.0 mi NW 3.5 mph - N/A   Clear